Hourly Weather Roundup
Issued by NWS Central Illinois

Home | Current Version | Previous Version | Text Only | Print | Product List | Glossary On
Versions: 1 2 3 4 5 6 7 8 9 10 11 12 13 14 15 16 17 18 19 20 21 22 23 24 25 26 27 28 29 30 31 32 33 34 35 36 37 38 39 40 41 42 43 44 45 46 47 48 49 50
000
NZUS43 KILX 301110
HWRILX

AREA WEATHER ROUNDUP
NATIONAL WEATHER SERVICE, LINCOLN IL
600 AM CDT TUE JUN 30 2015


CITY           SKY/WX    TMP DP  RH WIND       PRES   REMARKS
BLOOMINGTON    PTCLDY    67  67 100 W7        29.85R FOG
CHAMPAIGN      PTCLDY    65  63  93 SW7       29.83R FOG
DANVILLE       LGT RAIN  62  61  96 W3        29.80R
DECATUR        PTCLDY    67  64  90 W5        29.83S
EFFINGHAM      CLEAR     67  64  90 SW6       29.87R
FLORA          CLEAR     65  64  97 SW6       29.87R FOG
GALESBURG      PTCLDY    62  61  97 CALM      29.84R FOG
JACKSONVILLE   CLEAR     67  65  94 SW5       29.85S
LACON          CLEAR     61  60  95 CALM      29.82R
LAWRENCEVILLE  CLEAR     67  65  93 SW6       29.86R
LITCHFIELD     CLEAR     65  63  93 SW3       29.87S
$$


CITY           SKY/WX    TMP DP  RH WIND       PRES   REMARKS
LINCOLN        CLOUDY    68  65  91 CALM      29.84R
MACOMB         PTCLDY    65  65  99 W5        29.86R FOG
MATTOON        CLEAR     66  64  93 SW7       29.84R
MT CARMEL AP   CLEAR     70  64  83 SW7       29.85S
OLNEY-NOBLE AP CLEAR     64  64 100 S3        29.87R
PARIS          CLEAR     63  62  97 S6        29.84R
PEORIA         CLEAR     65  61  87 CALM      29.84R FOG
PONTIAC        PTCLDY    64  64  99 CALM      29.83R FOG
RANTOUL        CLOUDY    66  64  96 W5        29.83R
ROBINSON       CLEAR     66  64  95 SW3       29.86R
SPRINGFIELD    PTCLDY    68  65  90 W10       29.84R
TAYLORVILLE    PTCLDY    64  63  94 W6        29.84S
$$

...REGIONAL REPORTS...


CITY           SKY/WX    TMP DP  RH WIND       PRES   REMARKS
CHICAGO O`HARE PTCLDY    62  59  90 NW6       29.79R
KANKAKEE       PTCLDY    64  63  96 W7        29.82R
MOLINE         MOCLDY    62  59  90 CALM      29.83R FOG
MOUNT VERNON   CLEAR     64  61  88 CALM      29.88S
PITTSFIELD     CLEAR     67  64  90 W5        29.88S
QUINCY         CLEAR     65  63  93 W6        29.87R FOG
ROCKFORD       PTCLDY    60  58  92 NW6       29.82R FOG
$$


CITY           SKY/WX    TMP DP  RH WIND       PRES   REMARKS
BURLINGTON     FOG       63  63 100 W3        29.84S VSB 1/2
CEDAR RAPIDS   CLEAR     60  60 100 CALM      29.83R HAZE
DES MOINES     CLOUDY    67  61  81 W3        29.87R HAZE
KIRKSVILLE     CLEAR     65  62  90 W5        29.91R
OTTUMWA        CLEAR     65  63  93 W8        29.85R
ST LOUIS       CLEAR     70  65  84 W5        29.88R
$$


CITY           SKY/WX    TMP DP  RH WIND       PRES   REMARKS
TERRE HAUTE    PTCLDY    65  63  93 CALM      29.84R
EVANSVILLE     PTCLDY    70  63  78 W7        29.86F
INDIANAPOLIS   MOCLDY    65  62  90 SW8       29.82R
LAFAYETTE      CLOUDY    63  62  97 CALM      29.82R
MADISON        PTCLDY    59  57  93 NW3       29.81R FOG
MILWAUKEE      PTCLDY    62  57  83 NW6       29.77R
$$





USA.gov is the U.S. government's official web portal to all federal, state and local government web resources and services.